Location: Bothell
(47.7630°N, 122.2040°W)
Time: 02:29:56
(UTC-08:00)

Amateur Radio Satellites - All Passes

Search period start: 07 December 2016 01:59
Search period end: 08 December 2016 01:59
Location: Bothell, 47.7630°N, 122.2040°W

Satellite Date Start Highest point End Downlink Frequencies (MHz)
Time Altitude Azimuth
AUBIESAT-1 07 Dec 02:11:36 02:15:34 40° 257° (WSW) 02:19:48 437.475
ITUPSAT 1 07 Dec 02:15:23 02:20:05 57° 259° (W) 02:24:49 437.325
ITAMSAT 1 07 Dec 02:22:25 02:26:24 22° 92° (E) 02:30:19 435.822/435.867
M-CUBED/EXP-1 PRIME 07 Dec 02:25:29 02:28:58 25° 262° (W) 02:32:40 437.505
PHONESAT 2.4 07 Dec 02:28:36 02:30:27 17° 183° (S) 02:32:18 2401.200-2431.200
O/OREOS (USA 219) 07 Dec 02:39:45 02:43:00 20° 258° (WSW) 02:46:15 437.305
GONETS M04 07 Dec 02:42:20 02:49:42 30° 298° (WNW) 02:57:06
MOZHAYETS 4 07 Dec 02:43:20 02:47:55 73° 74° (ENE) 02:52:29
CUBESAT XI-V 07 Dec 02:51:02 02:53:53 17° 60° (ENE) 02:56:46 437.345
SO-50 07 Dec 02:58:12 03:02:05 26° 36° (NE) 03:05:53 436.795
KKS-1 07 Dec 03:05:32 03:09:54 56° 71° (ENE) 03:14:19 437.445
STARS 07 Dec 03:08:54 03:12:48 31° 66° (ENE) 03:16:43 437.465
SWISSCUBE 07 Dec 03:23:53 03:26:06 13° 272° (W) 03:28:19 437.505
BEESAT 07 Dec 03:27:42 03:30:00 13° 272° (W) 03:32:18 436.000
Cosmos 2499 07 Dec 03:31:01 03:36:04 16° 310° (NW) 03:41:11 435.465 / 435.565
Oscar 19 07 Dec 03:31:36 03:34:53 17° 303° (WNW) 03:38:09 437.125/150
AO-7 07 Dec 03:32:35 03:40:43 51° 101° (E) 03:48:47 29.400- 29.500
AO-85 07 Dec 03:34:28 03:38:36 29° 320° (NW) 03:42:30 145.980
Gurwin Techsat 1B 07 Dec 03:36:00 03:40:25 27° 298° (WNW) 03:44:49 435.225
ITAMSAT 1 07 Dec 04:01:08 04:06:13 57° 291° (WNW) 04:11:17 435.822/435.867
BEESAT 3 07 Dec 04:01:20 04:03:40 15° 112° (ESE) 04:06:03 437.485
BRITE-PL 07 Dec 04:04:51 04:08:16 17° 88° (E) 04:11:46 437.365/2234.400
YUBILEINY 07 Dec 04:15:46 04:22:30 23° 58° (ENE) 04:29:12 435.215
MOZHAYETS 4 07 Dec 04:23:12 04:25:36 14° 272° (W) 04:28:01
CUBESAT XI-V 07 Dec 04:26:11 04:30:45 70° 257° (WSW) 04:35:22 437.345
BEESAT 2 07 Dec 04:32:59 04:35:22 16° 112° (ESE) 04:37:47 435.950
SO-50 07 Dec 04:38:24 04:42:54 60° 237° (WSW) 04:47:18 436.795
Cosmos 2504 07 Dec 04:39:20 04:44:44 17° 51° (NE) 04:50:00 435.465 / 435.565
KKS-1 07 Dec 04:43:49 04:46:49 18° 269° (W) 04:49:51 437.445
STARS 07 Dec 04:45:09 04:49:07 31° 264° (W) 04:53:06 437.465
Cosmos 2491 07 Dec 04:53:31 04:57:27 14° 70° (ENE) 05:01:22 435.465 / 435.565
GOMX 1 07 Dec 05:11:55 05:16:39 29° 93° (E) 05:21:22 467.674
DOVE 4 07 Dec 05:17:34 05:20:26 15° 86° (E) 05:23:15 437.250
STRAND 1 07 Dec 05:18:41 05:22:38 23° 60° (ENE) 05:26:36 437.568
AO-85 07 Dec 05:19:52 05:20:24 10° 343° (NNW) 05:20:55 145.980
AO-7 07 Dec 05:25:36 05:33:25 46° 302° (WNW) 05:41:13 29.400- 29.500
BEESAT 3 07 Dec 05:36:58 05:40:51 63° 311° (NW) 05:44:47 437.485
AIST 1 07 Dec 05:37:51 05:41:10 20° 68° (ENE) 05:44:27
BRITE-PL 07 Dec 05:41:52 05:47:18 83° 284° (WNW) 05:52:57 437.365/2234.400
HORYU 2 07 Dec 05:43:45 05:48:14 79° 105° (ESE) 05:52:38 437.375
ITAMSAT 1 07 Dec 05:43:50 05:44:38 10° 310° (NW) 05:45:25 435.822/435.867
CUTE-I 07 Dec 05:44:03 05:48:33 27° 94° (E) 05:53:01 437.470
LilacSat-2 07 Dec 05:55:43 05:59:08 32° 96° (E) 06:02:32 437.200
NOAA 15 07 Dec 06:02:28 06:07:28 41° 98° (E) 06:12:27 137.62
NOAA 18 07 Dec 06:03:47 06:08:22 26° 93° (E) 06:12:55 137.9125
BEESAT 2 07 Dec 06:08:46 06:12:42 64° 310° (NW) 06:16:42 435.950
Cubesat XI-IV 07 Dec 06:10:04 06:15:11 43° 98° (E) 06:20:14 437.490
YUBILEINY 07 Dec 06:11:48 06:20:42 87° 81° (E) 06:29:34 435.215
CINEMA 3 07 Dec 06:26:50 06:29:44 16° 87° (E) 06:32:32 145.822/145.860
HO-68 07 Dec 06:29:39 06:34:02 17° 86° (E) 06:38:22 435.675
Cosmos 2504 07 Dec 06:31:25 06:40:14 64° 76° (ENE) 06:48:33 435.465 / 435.565
CANX-2 07 Dec 06:32:26 06:33:04 10° 86° (E) 06:33:42 2200.000
RS-15 07 Dec 06:33:02 06:43:39 42° 108° (ESE) 06:54:39 29.354- 29.394
Cosmos 2491 07 Dec 06:43:49 06:52:26 65° 93° (E) 07:01:04 435.465 / 435.565
GOMX 1 07 Dec 06:49:39 06:54:53 48° 291° (WNW) 07:00:09 467.674
DOVE 4 07 Dec 06:53:28 06:58:50 87° 285° (WNW) 07:04:01 437.250
SEEDS 07 Dec 06:54:51 06:55:46 11° 87° (E) 06:56:42 437.485
STRAND 1 07 Dec 06:56:23 07:01:26 58° 259° (W) 07:06:31 437.568
AIST 2 07 Dec 07:10:54 07:13:50 19° 113° (ESE) 07:16:48 435.215
AIST 1 07 Dec 07:14:47 07:19:00 45° 267° (W) 07:23:12
BEESAT 3 07 Dec 07:17:08 07:19:16 14° 332° (NNW) 07:21:25 437.485
AO-7 07 Dec 07:20:09 07:24:08 14° 326° (NW) 07:28:08 29.400- 29.500
HORYU 2 07 Dec 07:21:49 07:24:11 14° 302° (WNW) 07:26:32 437.375
BRITE-PL 07 Dec 07:21:55 07:25:02 16° 303° (WNW) 07:28:13 437.365/2234.400
CUTE-I 07 Dec 07:23:43 07:28:50 48° 292° (WNW) 07:33:54 437.470
LilacSat-2 07 Dec 07:30:18 07:33:17 22° 294° (WNW) 07:36:15 437.200
NOAA 15 07 Dec 07:42:30 07:47:08 32° 297° (WNW) 07:51:45 137.62
UNISAT 6 07 Dec 07:43:18 07:44:39 11° 55° (NE) 07:45:59 437.425
NOAA 18 07 Dec 07:43:56 07:49:20 53° 292° (WNW) 07:54:41 137.9125
CUTE 1.7 + AOD 2 07 Dec 07:47:00 07:51:09 53° 100° (E) 07:55:16 437.475
BEESAT 2 07 Dec 07:49:04 07:51:17 14° 332° (NNW) 07:53:31 435.950
Cubesat XI-IV 07 Dec 07:50:27 07:55:06 31° 297° (WNW) 07:59:43 437.490
ZACube-1 07 Dec 07:55:03 07:56:20 11° 87° (E) 07:57:36 437.345
FUNcube-1 07 Dec 08:01:35 08:03:17 12° 87° (E) 08:04:58 145.935
CINEMA 3 07 Dec 08:02:34 08:07:25 69° 286° (WNW) 08:12:01 145.822/145.860
AAUSAT CUBESAT 2 07 Dec 08:04:15 08:07:57 30° 96° (E) 08:11:36 437.432
CANX-2 07 Dec 08:05:17 08:09:31 85° 285° (WNW) 08:13:45 2200.000
YUBILEINY 07 Dec 08:09:59 08:16:20 23° 283° (WNW) 08:22:43 435.215
TIGRISAT 07 Dec 08:10:44 08:13:54 18° 61° (ENE) 08:17:03 435.000
CUBEBUG 2 07 Dec 08:11:33 08:15:44 41° 97° (E) 08:19:47 437.445
ANTELSAT 07 Dec 08:12:21 08:15:42 20° 62° (ENE) 08:19:01 437.575/2403.000
HO-68 07 Dec 08:15:36 08:22:52 81° 106° (ESE) 08:30:05 435.675
PRISM 07 Dec 08:18:21 08:22:25 79° 73° (ENE) 08:26:32 437.425
Cosmos 2504 07 Dec 08:25:31 08:33:03 33° 278° (W) 08:40:16 435.465 / 435.565
SEEDS 07 Dec 08:27:50 08:32:03 82° 286° (WNW) 08:36:14 437.485
Oscar 11 07 Dec 08:29:03 08:32:31 23° 93° (E) 08:35:57 145.826/435.025
DOVE 4 07 Dec 08:32:37 08:35:43 16° 304° (WNW) 08:38:47 437.250
COMPASS 1 07 Dec 08:35:36 08:39:47 83° 101° (ESE) 08:43:57 437.405
AO-85 07 Dec 08:41:59 08:45:02 20° 33° (NNE) 08:47:58 145.980
Cosmos 2491 07 Dec 08:42:09 08:49:54 34° 295° (WNW) 08:57:41 435.465 / 435.565
RS-15 07 Dec 08:43:28 08:55:25 73° 313° (NW) 09:07:51 29.354- 29.394
AIST 2 07 Dec 08:47:52 08:51:56 56° 312° (NW) 08:56:04 435.215
UWE-3 07 Dec 08:51:01 08:55:21 68° 102° (ESE) 08:59:32 435.000/436.395/437.385
DELFI C3 07 Dec 08:51:47 08:54:00 14° 90° (E) 08:56:13 145.870
GONETS M04 07 Dec 08:55:58 08:57:50 11° 42° (NE) 08:59:43
HUMSAT D 07 Dec 09:10:12 09:11:54 12° 88° (E) 09:13:35 437.325/437.525
UNISAT 6 07 Dec 09:15:53 09:20:33 73° 74° (ENE) 09:25:12 437.425
CUTE 1.7 + AOD 2 07 Dec 09:23:46 09:26:37 18° 298° (WNW) 09:29:28 437.475
NOAA 18 07 Dec 09:27:40 09:28:48 11° 312° (NW) 09:29:56 137.9125
Cosmos 2499 07 Dec 09:27:43 09:33:13 18° 52° (NE) 09:38:31 435.465 / 435.565
JAS-2 07 Dec 09:28:39 09:33:50 30° 63° (ENE) 09:38:36 435.910
ZACube-1 07 Dec 09:28:57 09:33:14 78° 283° (WNW) 09:37:23 437.345
CUSAT 1 07 Dec 09:33:52 09:36:49 78° 284° (WNW) 09:39:27 437.405
FUNcube-1 07 Dec 09:35:50 09:40:04 72° 286° (WNW) 09:44:12 145.935
NANOSAT C BR1 07 Dec 09:36:56 09:39:30 16° 60° (ENE) 09:42:04 145.865
AAUSAT CUBESAT 2 07 Dec 09:39:48 09:43:21 28° 293° (WNW) 09:46:54 437.432
CINEMA 3 07 Dec 09:42:15 09:43:35 11° 306° (NW) 09:44:54 145.822/145.860
CANX-2 07 Dec 09:43:31 09:44:41 11° 303° (WNW) 09:45:50 2200.000
QB50P2 07 Dec 09:43:32 09:46:40 20° 63° (ENE) 09:49:50 145.880/145.840
POLYITAN 1 07 Dec 09:44:06 09:47:11 20° 62° (ENE) 09:50:16 437.675
TIGRISAT 07 Dec 09:45:29 09:50:09 64° 259° (W) 09:54:46 435.000
ANTELSAT 07 Dec 09:47:24 09:52:01 58° 259° (W) 09:56:36 437.575/2403.000
CUBEBUG 2 07 Dec 09:48:37 09:52:08 23° 296° (WNW) 09:55:33 437.445
PCSat 07 Dec 09:55:54 09:58:06 13° 102° (ESE) 10:00:19 145.827
QB50P1 07 Dec 09:56:10 09:59:39 25° 65° (ENE) 10:03:08 145.935-145.965
PRISM 07 Dec 09:57:19 09:58:16 11° 272° (W) 09:59:13 437.425
DUCHIFAT 1 07 Dec 09:57:28 10:00:47 22° 64° (ENE) 10:04:06 145.980
HO-68 07 Dec 10:04:12 10:09:53 26° 307° (NW) 10:15:33 435.675
Oscar 11 07 Dec 10:04:46 10:08:47 39° 291° (WNW) 10:12:47 145.826/435.025
SEEDS 07 Dec 10:06:13 10:07:02 10° 303° (WNW) 10:07:51 437.485
COMPASS 1 07 Dec 10:13:02 10:14:44 12° 301° (WNW) 10:16:26 437.405
POPSAT HIP 1 07 Dec 10:17:14 10:21:12 38° 69° (ENE) 10:25:11 437.405
AO-85 07 Dec 10:21:54 10:25:54 71° 236° (SW) 10:29:45 145.980
DELFI C3 07 Dec 10:25:15 10:29:09 55° 288° (WNW) 10:33:03 145.870
UWE-3 07 Dec 10:28:48 10:31:16 15° 301° (WNW) 10:33:42 435.000/436.395/437.385
AIST 2 07 Dec 10:29:04 10:31:19 14° 334° (NNW) 10:33:35 435.215
DANDE 07 Dec 10:32:59 10:37:12 67° 282° (WNW) 10:40:27 436.750
HUMSAT D 07 Dec 10:43:55 10:47:59 68° 287° (WNW) 10:52:01 437.325/437.525
ESTCUBE 1 07 Dec 10:45:56 10:49:21 21° 92° (E) 10:52:45 437.505/2401.250
BUGSAT 1 07 Dec 10:47:52 10:51:32 29° 66° (ENE) 10:55:14 437.445
GONETS M04 07 Dec 10:49:22 10:57:38 44° 70° (ENE) 11:05:52
UNISAT 6 07 Dec 10:55:10 10:57:45 15° 271° (W) 11:00:20 437.425
RS-15 07 Dec 10:59:16 11:10:24 39° 344° (NNW) 11:21:46 29.354- 29.394
CUBEBUG 1 07 Dec 11:08:11 11:11:37 21° 92° (E) 11:15:02 437.445
ZACube-1 07 Dec 11:08:20 11:08:43 10° 304° (NW) 11:09:07 437.345
NANOSAT C BR1 07 Dec 11:10:30 11:14:44 66° 258° (WSW) 11:19:01 145.865
JAS-2 07 Dec 11:12:37 11:18:46 51° 260° (W) 11:24:16 435.910
50 SAT 07 Dec 11:14:08 11:15:08 11° 89° (E) 11:16:09 437.505
QB50P2 07 Dec 11:18:01 11:22:10 48° 261° (W) 11:26:20 145.880/145.840
POLYITAN 1 07 Dec 11:18:27 11:22:39 50° 260° (W) 11:26:51 437.675
Cosmos 2499 07 Dec 11:19:39 11:28:20 68° 76° (ENE) 11:36:22 435.465 / 435.565
VELOX 1 07 Dec 11:22:59 11:26:20 21° 92° (E) 11:29:41 145.980
QB50P1 07 Dec 11:31:15 11:35:15 38° 263° (W) 11:39:16 145.935-145.965
DX 1 07 Dec 11:32:03 11:34:18 14° 89° (E) 11:36:34 434.975-435.025
DUCHIFAT 1 07 Dec 11:32:10 11:36:13 42° 261° (W) 11:40:18 145.980
Oscar 19 07 Dec 11:33:12 11:37:25 26° 62° (ENE) 11:41:39 437.125/150
PCSat 07 Dec 11:35:10 11:40:35 77° 121° (ESE) 11:46:02 145.827
UKube-1 07 Dec 11:36:55 11:38:16 11° 88° (E) 11:39:36 .
Gurwin Techsat 1B 07 Dec 11:42:23 11:46:00 19° 57° (ENE) 11:49:38 435.225
SPROUT 07 Dec 11:44:38 11:48:04 23° 93° (E) 11:51:28 437.525
POPSAT HIP 1 07 Dec 11:53:37 11:57:06 24° 266° (W) 12:00:36 437.405
BEESAT 3 07 Dec 12:13:30 12:17:07 32° 42° (NE) 12:20:44 437.485
AISAT 07 Dec 12:21:45 12:26:16 81° 104° (ESE) 12:30:44 437.250
ESTCUBE 1 07 Dec 12:22:03 12:26:24 48° 290° (WNW) 12:30:44 437.505/2401.250
BUGSAT 1 07 Dec 12:23:03 12:26:50 31° 264° (W) 12:30:40 437.445
CUBEBUG 1 07 Dec 12:43:52 12:48:06 45° 290° (WNW) 12:52:19 437.445
AO-7 07 Dec 12:45:08 12:51:34 26° 47° (NE) 12:58:03 29.400- 29.500
50 SAT 07 Dec 12:45:18 12:48:49 59° 286° (WNW) 12:52:20 437.505
BEESAT 2 07 Dec 12:45:59 12:49:40 32° 42° (NE) 12:53:20 435.950
GONETS M04 07 Dec 12:46:21 12:54:34 49° 272° (W) 13:02:48
VELOX 1 07 Dec 12:58:44 13:03:03 47° 290° (WNW) 13:07:19 145.980
TISAT 1 07 Dec 13:00:50 13:04:19 24° 94° (E) 13:07:47 437.305
DX 1 07 Dec 13:06:35 13:10:59 70° 287° (WNW) 13:15:21 434.975-435.025
UKube-1 07 Dec 13:10:31 13:14:54 83° 283° (WNW) 13:19:14 .
Oscar 19 07 Dec 13:11:32 13:16:29 49° 261° (W) 13:21:29 437.125/150
Cosmos 2499 07 Dec 13:13:37 13:20:44 30° 280° (W) 13:27:28 435.465 / 435.565
RS-15 07 Dec 13:15:38 13:27:02 39° 18° (NNE) 13:38:20 29.354- 29.394
Gurwin Techsat 1B 07 Dec 13:20:02 13:25:22 77° 256° (WSW) 13:30:43 435.225
PCSat 07 Dec 13:20:06 13:24:34 25° 322° (NW) 13:29:03 145.827
SPROUT 07 Dec 13:20:07 13:24:08 39° 291° (WNW) 13:28:08 437.525
SWISSCUBE 07 Dec 13:40:47 13:43:44 16° 90° (E) 13:46:41 437.505
ITAMSAT 1 07 Dec 13:43:18 13:48:17 47° 67° (ENE) 13:53:16 435.822/435.867
BEESAT 07 Dec 13:44:41 13:47:36 16° 90° (E) 13:50:29 436.000
AUBIESAT-1 07 Dec 13:48:39 13:50:13 12° 91° (E) 13:51:46 437.475
AIST 2 07 Dec 13:50:32 13:52:09 12° 22° (NNE) 13:53:46 435.215
BEESAT 3 07 Dec 13:51:08 13:54:46 34° 241° (WSW) 13:58:22 437.485
AISAT 07 Dec 13:59:44 14:02:08 14° 302° (WNW) 14:04:31 437.250
M-CUBED/EXP-1 PRIME 07 Dec 14:00:54 14:04:16 19° 96° (E) 14:07:32 437.505
ITUPSAT 1 07 Dec 14:12:36 14:16:42 28° 95° (E) 14:20:47 437.325
BEESAT 2 07 Dec 14:23:48 14:27:28 34° 241° (WSW) 14:31:07 435.950
AO-7 07 Dec 14:35:01 14:43:20 87° 70° (ENE) 14:51:45 29.400- 29.500
TISAT 1 07 Dec 14:36:10 14:40:02 36° 292° (WNW) 14:43:54 437.305
MOZHAYETS 4 07 Dec 14:36:30 14:38:42 13° 88° (E) 14:40:55
UKube-1 07 Dec 14:48:46 14:50:12 11° 304° (NW) 14:51:39 .
Gurwin Techsat 1B 07 Dec 15:04:35 15:06:12 11° 275° (W) 15:07:51 435.225
PCSat 07 Dec 15:08:47 15:10:01 11° 348° (NNW) 15:11:14 145.827
HORYU 2 07 Dec 15:10:33 15:13:10 15° 58° (ENE) 15:15:46 437.375
O/OREOS (USA 219) 07 Dec 15:15:33 15:19:31 30° 105° (ESE) 15:23:28 437.305
SWISSCUBE 07 Dec 15:17:16 15:22:01 67° 288° (WNW) 15:26:43 437.505
BRITE-PL 07 Dec 15:19:31 15:22:52 21° 61° (ENE) 15:26:25 437.365/2234.400
AUBIESAT-1 07 Dec 15:20:39 15:25:18 89° 106° (ESE) 15:29:45 437.475
BEESAT 07 Dec 15:21:07 15:25:52 68° 288° (WNW) 15:30:34 436.000
ITAMSAT 1 07 Dec 15:23:35 15:27:57 27° 266° (W) 15:32:21 435.822/435.867
AIST 2 07 Dec 15:27:43 15:31:45 40° 45° (NE) 15:35:45 435.215
RS-15 07 Dec 15:29:24 15:41:54 76° 48° (NE) 15:54:01 29.354- 29.394
CUTE-I 07 Dec 15:33:33 15:35:13 11° 51° (NE) 15:36:52 437.470
M-CUBED/EXP-1 PRIME 07 Dec 15:34:26 15:39:04 58° 294° (WNW) 15:43:32 437.505
NOAA 15 07 Dec 15:48:57 15:52:04 16° 55° (NE) 15:55:12 137.62
ITUPSAT 1 07 Dec 15:50:13 15:54:38 39° 293° (WNW) 15:59:02 437.325
NOAA 18 07 Dec 15:56:29 15:58:57 13° 51° (NE) 16:01:26 137.9125
Cubesat XI-IV 07 Dec 15:57:55 16:01:22 18° 56° (NE) 16:04:50 437.490
ISS 07 Dec 15:59:22 16:02:21 32° 144° (SE) 16:05:21 145.825
MOZHAYETS 4 07 Dec 16:11:52 16:16:26 76° 285° (WNW) 16:20:58
CUBESAT XI-V 07 Dec 16:19:39 16:23:22 23° 92° (E) 16:27:05 437.345
GOMX 1 07 Dec 16:23:18 16:27:38 37° 67° (ENE) 16:32:17 467.674
DOVE 4 07 Dec 16:25:47 16:29:25 21° 60° (ENE) 16:33:12 437.250
KKS-1 07 Dec 16:29:19 16:33:49 71° 102° (ESE) 16:38:16 437.445
STARS 07 Dec 16:30:35 16:34:40 35° 97° (E) 16:38:43 437.465
AO-7 07 Dec 16:30:53 16:37:08 23° 270° (W) 16:43:27 29.400- 29.500
LilacSat-2 07 Dec 16:40:51 16:44:07 27° 68° (ENE) 16:47:24 437.200
HORYU 2 07 Dec 16:44:40 16:49:10 74° 257° (WSW) 16:53:40 437.375
Cosmos 2491 07 Dec 16:49:58 16:58:00 39° 67° (ENE) 17:05:59 435.465 / 435.565
PCSat 07 Dec 16:54:26 16:56:05 11° 15° (NNE) 16:57:46 145.827
O/OREOS (USA 219) 07 Dec 16:54:38 16:58:50 35° 304° (NW) 17:03:02 437.305
AUBIESAT-1 07 Dec 16:56:22 16:59:01 15° 309° (NW) 17:01:38 437.475
BRITE-PL 07 Dec 16:56:45 17:00:59 49° 261° (W) 17:05:36 437.365/2234.400
SWISSCUBE 07 Dec 16:57:51 16:58:54 11° 307° (NW) 16:59:58 437.505
BEESAT 07 Dec 17:01:33 17:02:46 11° 307° (NW) 17:03:59 436.000
HO-68 07 Dec 17:02:34 17:07:38 21° 50° (NE) 17:12:43 435.675
AIST 2 07 Dec 17:06:27 17:10:06 29° 244° (WSW) 17:13:45 435.215
CUTE-I 07 Dec 17:08:56 17:14:13 61° 70° (ENE) 17:19:31 437.470
M-CUBED/EXP-1 PRIME 07 Dec 17:11:26 17:12:34 11° 313° (NW) 17:13:41 437.505
YUBILEINY 07 Dec 17:23:31 17:29:33 21° 76° (ENE) 17:35:35 435.215
NOAA 15 07 Dec 17:25:53 17:31:08 90° 351° (N) 17:36:26 137.62
CANX-2 07 Dec 17:27:58 17:29:52 13° 59° (ENE) 17:31:47 2200.000
CINEMA 3 07 Dec 17:30:52 17:34:46 23° 62° (ENE) 17:38:42 145.822/145.860
NOAA 18 07 Dec 17:33:08 17:38:37 66° 70° (ENE) 17:44:09 137.9125
Cubesat XI-IV 07 Dec 17:35:23 17:40:47 85° 255° (WSW) 17:46:12 437.490
ISS 07 Dec 17:35:27 17:38:44 60° 343° (NNW) 17:42:01 145.825
RS-15 07 Dec 17:42:38 17:53:32 39° 253° (WSW) 18:04:09 29.354- 29.394
SEEDS 07 Dec 17:49:35 17:51:27 13° 59° (ENE) 17:53:19 437.485
MOZHAYETS 4 07 Dec 17:51:29 17:52:48 11° 305° (NW) 17:54:06
CUBESAT XI-V 07 Dec 17:56:30 18:00:57 45° 290° (WNW) 18:05:24 437.345
COMPASS 1 07 Dec 17:57:40 17:58:26 10° 57° (ENE) 17:59:13 437.405
GOMX 1 07 Dec 18:01:43 18:05:48 30° 267° (W) 18:10:11 467.674
DOVE 4 07 Dec 18:01:44 18:06:36 64° 260° (W) 18:11:44 437.250
KKS-1 07 Dec 18:07:07 18:09:51 16° 301° (WNW) 18:12:34 437.445
STARS 07 Dec 18:07:09 18:10:54 28° 295° (WNW) 18:14:38 437.465
LilacSat-2 07 Dec 18:15:05 18:18:23 27° 265° (W) 18:21:41 437.200
UWE-3 07 Dec 18:17:32 18:19:22 12° 57° (ENE) 18:21:12 435.000/436.395/437.385
PCSat 07 Dec 18:36:45 18:41:25 28° 40° (NE) 18:46:04 145.827
CUTE 1.7 + AOD 2 07 Dec 18:42:35 18:46:43 57° 72° (ENE) 18:50:51 437.475
Cosmos 2491 07 Dec 18:46:47 18:55:12 56° 270° (W) 19:03:36 435.465 / 435.565
HO-68 07 Dec 18:47:13 18:54:23 83° 71° (ENE) 19:01:37 435.675
CUTE-I 07 Dec 18:50:36 18:54:40 22° 269° (W) 18:58:45 437.470
ZACube-1 07 Dec 18:53:15 18:56:03 16° 61° (ENE) 18:58:49 437.345
SO-50 07 Dec 18:56:32 18:59:57 20° 113° (ESE) 19:03:21 436.795
AAUSAT CUBESAT 2 07 Dec 18:57:34 19:01:11 31° 68° (ENE) 19:04:49 437.432
FUNcube-1 07 Dec 18:59:41 19:02:37 17° 61° (ENE) 19:05:30 145.935
CANX-2 07 Dec 19:00:55 19:05:09 80° 257° (WSW) 19:09:23 2200.000
STRAND 1 07 Dec 19:03:27 19:08:11 37° 97° (E) 19:12:52 437.568
CINEMA 3 07 Dec 19:06:39 19:11:31 55° 260° (W) 19:16:29 145.822/145.860
NOAA 15 07 Dec 19:09:08 19:11:40 13° 273° (W) 19:14:12 137.62
CUBEBUG 2 07 Dec 19:12:03 19:16:40 53° 71° (ENE) 19:21:15 437.445
ISS 07 Dec 19:12:24 19:15:35 40° 3° (N) 19:18:44 145.825
Cosmos 2504 07 Dec 19:12:54 19:20:54 49° 88° (E) 19:29:16 435.465 / 435.565
NOAA 18 07 Dec 19:15:40 19:19:45 21° 269° (W) 19:23:53 137.9125
YUBILEINY 07 Dec 19:16:21 19:25:05 89° 98° (E) 19:33:54 435.215
Cubesat XI-IV 07 Dec 19:19:14 19:21:40 13° 274° (W) 19:24:05 437.490
SEEDS 07 Dec 19:22:24 19:26:34 79° 256° (WSW) 19:30:45 437.485
Oscar 11 07 Dec 19:26:56 19:30:35 28° 66° (ENE) 19:34:16 145.826/435.025
COMPASS 1 07 Dec 19:29:10 19:33:17 84° 79° (ENE) 19:37:26 437.405
DELFI C3 07 Dec 19:41:09 19:43:16 14° 61° (ENE) 19:45:23 145.870
AIST 1 07 Dec 19:46:55 19:51:15 87° 98° (E) 19:55:38
UWE-3 07 Dec 19:50:27 19:55:06 82° 76° (ENE) 19:59:43 435.000/436.395/437.385
CUSAT 1 07 Dec 19:59:39 20:03:16 78° 79° (ENE) 20:08:01 437.405
HUMSAT D 07 Dec 20:04:30 20:06:54 15° 61° (ENE) 20:09:19 437.325/437.525
PCSat 07 Dec 20:19:52 20:25:16 66° 241° (WSW) 20:30:37 145.827
CUTE 1.7 + AOD 2 07 Dec 20:20:26 20:22:55 15° 270° (W) 20:25:27 437.475
ZACube-1 07 Dec 20:27:19 20:31:51 68° 258° (WSW) 20:36:19 437.345
AAUSAT CUBESAT 2 07 Dec 20:33:10 20:36:40 27° 266° (W) 20:40:11 437.432
FUNcube-1 07 Dec 20:33:55 20:38:25 63° 259° (W) 20:42:50 145.935
SO-50 07 Dec 20:35:16 20:40:00 67° 311° (NW) 20:44:41 436.795
HO-68 07 Dec 20:37:39 20:42:56 22° 271° (W) 20:48:15 435.675
STRAND 1 07 Dec 20:42:45 20:47:18 33° 295° (WNW) 20:51:50 437.568
Cosmos 2491 07 Dec 20:47:45 20:49:56 11° 292° (WNW) 20:52:07 435.465 / 435.565
ISS 07 Dec 20:49:01 20:52:20 82° 22° (NNE) 20:55:40 145.825
CUBEBUG 2 07 Dec 20:50:03 20:53:34 20° 269° (W) 20:57:05 437.445
Oscar 11 07 Dec 21:02:43 21:06:38 33° 264° (W) 21:10:34 145.826/435.025
DANDE 07 Dec 21:05:28 21:08:16 76° 259° (W) 21:11:39 436.750
Cosmos 2504 07 Dec 21:06:18 21:14:23 46° 290° (WNW) 21:22:52 435.465 / 435.565
UNISAT 6 07 Dec 21:06:34 21:08:00 11° 87° (E) 21:09:26 437.425
COMPASS 1 07 Dec 21:09:09 21:09:26 10° 274° (W) 21:09:43 437.405
DELFI C3 07 Dec 21:13:44 21:17:37 61° 259° (W) 21:21:32 145.870
YUBILEINY 07 Dec 21:16:25 21:23:11 24° 302° (WNW) 21:30:02 435.215
AIST 1 07 Dec 21:28:07 21:29:33 11° 298° (WNW) 21:30:59
UWE-3 07 Dec 21:30:05 21:32:07 13° 273° (W) 21:34:10 435.000/436.395/437.385
PRISM 07 Dec 21:31:23 21:35:34 80° 104° (ESE) 21:39:44 437.425
TIGRISAT 07 Dec 21:34:25 21:37:44 21° 92° (E) 21:40:59 435.000
ANTELSAT 07 Dec 21:36:18 21:39:47 23° 92° (E) 21:43:12 437.575/2403.000
HUMSAT D 07 Dec 21:37:53 21:42:04 65° 259° (WSW) 21:46:13 437.325/437.525
AISAT 07 Dec 21:48:06 21:50:34 15° 58° (ENE) 21:53:02 437.250
ESTCUBE 1 07 Dec 21:48:31 21:52:21 29° 65° (ENE) 21:56:12 437.505/2401.250
CUBEBUG 1 07 Dec 22:07:12 22:10:54 27° 65° (ENE) 22:14:37 437.445
PCSat 07 Dec 22:07:15 22:07:36 10° 259° (W) 22:07:57 145.827
Cosmos 2499 07 Dec 22:14:37 22:16:14 11° 67° (ENE) 22:17:50 435.465 / 435.565
SO-50 07 Dec 22:18:06 22:21:20 18° 332° (NNW) 22:24:30 436.795
JAS-2 07 Dec 22:18:57 22:21:48 15° 89° (E) 22:24:43 435.910
VELOX 1 07 Dec 22:23:15 22:27:01 28° 65° (ENE) 22:30:48 145.980
ISS 07 Dec 22:25:58 22:28:32 21° 221° (SW) 22:31:06 145.825
DX 1 07 Dec 22:30:27 22:33:35 20° 61° (ENE) 22:36:44 434.975-435.025
UKube-1 07 Dec 22:33:59 22:36:41 16° 60° (ENE) 22:39:24 .
UNISAT 6 07 Dec 22:40:55 22:45:22 82° 285° (WNW) 22:49:41 437.425
SPROUT 07 Dec 22:41:08 22:44:46 27° 66° (ENE) 22:48:26 437.525
NANOSAT C BR1 07 Dec 22:52:32 22:55:08 16° 90° (E) 22:57:43 145.865
QB50P2 07 Dec 22:59:56 23:03:13 21° 93° (E) 23:06:28 145.880/145.840
POLYITAN 1 07 Dec 23:00:29 23:03:40 20° 92° (E) 23:06:49 437.675
Cosmos 2504 07 Dec 23:07:40 23:10:39 12° 317° (NW) 23:13:40 435.465 / 435.565
PRISM 07 Dec 23:08:23 23:10:17 13° 302° (WNW) 23:12:11 437.425
TIGRISAT 07 Dec 23:10:28 23:14:40 44° 291° (WNW) 23:18:46 435.000
QB50P1 07 Dec 23:12:31 23:16:08 26° 95° (E) 23:19:43 145.935-145.965
ANTELSAT 07 Dec 23:12:32 23:16:41 40° 291° (WNW) 23:20:43 437.575/2403.000
DUCHIFAT 1 07 Dec 23:13:02 23:16:27 23° 93° (E) 23:19:49 145.980
AISAT 07 Dec 23:22:01 23:26:26 77° 256° (WSW) 23:30:56 437.250
50 SAT 07 Dec 23:23:21 23:26:52 88° 268° (W) 23:30:24 437.505
ESTCUBE 1 07 Dec 23:25:00 23:29:04 34° 263° (W) 23:33:11 437.505/2401.250
POPSAT HIP 1 07 Dec 23:33:58 23:38:02 42° 98° (E) 23:42:03 437.405
CUBEBUG 1 07 Dec 23:43:03 23:47:03 35° 263° (W) 23:51:08 437.445
O/OREOS (USA 219) 07 Dec 23:43:10 23:46:04 17° 46° (NE) 23:48:58 437.305
GONETS M04 07 Dec 23:54:55 00:02:58 44° 87° (E) 00:11:00
TISAT 1 07 Dec 23:55:25 23:59:05 29° 66° (ENE) 00:02:46 437.305
Cosmos 2499 07 Dec 23:58:51 00:07:07 51° 89° (E) 00:15:36 435.465 / 435.565
VELOX 1 07 Dec 23:59:19 00:03:22 35° 263° (W) 00:07:27 145.980
BUGSAT 1 08 Dec 00:01:11 00:04:52 29° 95° (E) 00:08:30 437.445
JAS-2 08 Dec 00:02:23 00:07:35 79° 286° (WNW) 00:13:00 435.910
DX 1 08 Dec 00:05:10 00:09:25 52° 259° (W) 00:13:43 434.975-435.025
UKube-1 08 Dec 00:07:59 00:12:15 64° 258° (WSW) 00:16:35 .
SPROUT 08 Dec 00:16:40 00:20:36 34° 264° (W) 00:24:33 437.525
UNISAT 6 08 Dec 00:19:58 00:21:18 11° 304° (NW) 00:22:38 437.425
NANOSAT C BR1 08 Dec 00:27:04 00:31:13 56° 289° (WNW) 00:35:20 145.865
QB50P2 08 Dec 00:35:11 00:39:12 41° 291° (WNW) 00:43:10 145.880/145.840
POLYITAN 1 08 Dec 00:35:38 00:39:40 43° 290° (WNW) 00:43:39 437.675
AUBIESAT-1 08 Dec 00:35:40 00:39:10 25° 57° (ENE) 00:42:51 437.475
AO-85 08 Dec 00:40:09 00:43:18 17° 112° (ESE) 00:46:19 145.980
QB50P1 08 Dec 00:48:07 00:51:57 33° 293° (WNW) 00:55:44 145.935-145.965
DUCHIFAT 1 08 Dec 00:48:20 00:52:15 37° 292° (WNW) 00:56:07 145.980
M-CUBED/EXP-1 PRIME 08 Dec 00:49:13 00:53:09 38° 62° (ENE) 00:57:21 437.505
SWISSCUBE 08 Dec 00:50:01 00:54:05 28° 64° (ENE) 00:58:08 437.505
BEESAT 08 Dec 00:53:52 00:57:53 28° 64° (ENE) 01:01:55 436.000
PHONESAT 2.4 08 Dec 01:05:00 01:06:47 16° 173° (S) 01:08:32 2401.200-2431.200
POPSAT HIP 1 08 Dec 01:10:18 01:13:34 22° 297° (WNW) 01:16:48 437.405
Oscar 19 08 Dec 01:19:19 01:24:19 45° 99° (E) 01:29:17 437.125/150
O/OREOS (USA 219) 08 Dec 01:21:34 01:26:05 79° 246° (WSW) 01:30:32 437.305
ITUPSAT 1 08 Dec 01:22:19 01:26:54 48° 69° (ENE) 01:31:30 437.325
TISAT 1 08 Dec 01:30:53 01:34:40 31° 264° (W) 01:38:29 437.305
Gurwin Techsat 1B 08 Dec 01:33:01 01:37:48 33° 95° (E) 01:42:32 435.225
BUGSAT 1 08 Dec 01:36:33 01:40:13 30° 293° (WNW) 01:43:49 437.445
MOZHAYETS 4 08 Dec 01:41:12 01:44:32 20° 62° (ENE) 01:47:53
SO-50 08 Dec 01:43:40 01:46:12 14° 22° (NNE) 01:48:43 436.795
JAS-2 08 Dec 01:49:36 01:51:55 13° 307° (NW) 01:54:14 435.910
ITAMSAT 1 08 Dec 01:54:42 01:56:39 12° 86° (E) 01:58:35 435.822/435.867
